Previsão horária em Plino

Hoje, 3 Março, Quarta-feira

Tempo Temperatura Precipitação Vento Pressão Humidade
00:00 -2°C° 0 mm 4 m/s 754 mmHg 84%
01:00 -3°C° 0 mm 4 m/s 754 mmHg 85%
02:00 -2°C° 0 mm 3 m/s 754 mmHg 87%
03:00 -2°C° 0 mm 3 m/s 754 mmHg 88%
04:00 -2°C° 0 mm 3 m/s 754 mmHg 89%
05:00 -4°C° 0 mm 3 m/s 754 mmHg 90%
06:00 -3°C° 0 mm 4 m/s 754 mmHg 89%
07:00 -3°C° 0 mm 4 m/s 754 mmHg 88%
08:00 -3°C° 0 mm 4 m/s 754 mmHg 87%
09:00 -2°C° 0 mm 4 m/s 754 mmHg 80%
10:00 0°C° 0 mm 4 m/s 753 mmHg 74%
11:00 +1°C° 0 mm 4 m/s 753 mmHg 67%
12:00 +2°C° 0 mm 5 m/s 753 mmHg 65%
13:00 +3°C° 0 mm 5 m/s 752 mmHg 63%
14:00 +3°C° 0 mm 5 m/s 752 mmHg 61%
15:00 +3°C° 0 mm 5 m/s 751 mmHg 63%
16:00 +2°C° 0 mm 5 m/s 750 mmHg 65%
17:00 +3°C° 0 mm 4 m/s 750 mmHg 68%
18:00 +1°C° 0 mm 4 m/s 749 mmHg 69%
19:00 0°C° 0 mm 4 m/s 749 mmHg 71%
20:00 0°C° 0 mm 4 m/s 748 mmHg 72%
21:00 -1°C° 0 mm 4 m/s 747 mmHg 74%
22:00 -1°C° 0 mm 4 m/s 747 mmHg 76%
23:00 -1°C° 0 mm 4 m/s 746 mmHg 78%

Amanhã, 4 Março, Quinta-feira

Tempo Temperatura Precipitação Vento Pressão Humidade
00:00 -1°C° 0 mm 4 m/s 745 mmHg 81%
01:00 -1°C° 0 mm 4 m/s 745 mmHg 84%
02:00 -1°C° 0 mm 4 m/s 744 mmHg 87%
03:00 -1°C° 0 mm 4 m/s 743 mmHg 87%
04:00 -1°C° 0 mm 4 m/s 742 mmHg 86%
05:00 -2°C° 0 mm 4 m/s 741 mmHg 86%
06:00 -2°C° 0 mm 4 m/s 741 mmHg 86%
07:00 -2°C° 0 mm 4 m/s 740 mmHg 86%
08:00 -1°C° 0 mm 4 m/s 740 mmHg 86%
09:00 -1°C° 0 mm 4 m/s 739 mmHg 85%
10:00 -1°C° 0 mm 4 m/s 739 mmHg 85%
11:00 -1°C° 0 mm 4 m/s 738 mmHg 84%
12:00 -1°C° 0 mm 4 m/s 738 mmHg 87%
13:00 -1°C° 0 mm 4 m/s 738 mmHg 89%
14:00 -1°C° 0 mm 4 m/s 738 mmHg 91%
15:00 -1°C° 0.1 mm 4 m/s 738 mmHg 91%
16:00 -1°C° 0.1 mm 4 m/s 738 mmHg 92%
17:00 -1°C° 0.1 mm 3 m/s 738 mmHg 92%
18:00 -1°C° 0.3 mm 3 m/s 739 mmHg 89%
19:00 -2°C° 0.3 mm 3 m/s 739 mmHg 86%
20:00 -2°C° 0.3 mm 3 m/s 740 mmHg 83%
21:00 -4°C° 0 mm 3 m/s 740 mmHg 83%
22:00 -5°C° 0 mm 3 m/s 741 mmHg 83%
23:00 -5°C° 0 mm 3 m/s 741 mmHg 83%

Depois de amanhã, 5 Março, Sexta-feira

Tempo Temperatura Precipitação Vento Pressão Humidade
00:00 -6°C° 0 mm 3 m/s 742 mmHg 82%
01:00 -6°C° 0 mm 3 m/s 742 mmHg 81%
02:00 -7°C° 0 mm 3 m/s 743 mmHg 80%
03:00 -7°C° 0 mm 3 m/s 743 mmHg 79%
04:00 -6°C° 0 mm 2 m/s 743 mmHg 79%
05:00 -6°C° 0 mm 2 m/s 743 mmHg 79%
06:00 -6°C° 0 mm 2 m/s 744 mmHg 77%
07:00 -6°C° 0 mm 2 m/s 744 mmHg 75%
08:00 -5°C° 0 mm 2 m/s 744 mmHg 73%
09:00 -4°C° 0 mm 2 m/s 744 mmHg 65%
10:00 -3°C° 0 mm 2 m/s 744 mmHg 58%
11:00 -2°C° 0 mm 2 m/s 745 mmHg 51%
12:00 -2°C° 0 mm 3 m/s 745 mmHg 52%
13:00 -2°C° 0 mm 3 m/s 745 mmHg 54%
14:00 -1°C° 0 mm 3 m/s 745 mmHg 55%
15:00 -3°C° 0.2 mm 4 m/s 745 mmHg 59%
16:00 -3°C° 0.2 mm 4 m/s 745 mmHg 62%
17:00 -5°C° 0.2 mm 5 m/s 745 mmHg 66%
18:00 -6°C° 0 mm 5 m/s 746 mmHg 65%
19:00 -6°C° 0 mm 5 m/s 747 mmHg 63%
20:00 -7°C° 0 mm 5 m/s 747 mmHg 62%
21:00 -8°C° 0 mm 4 m/s 748 mmHg 62%
22:00 -8°C° 0 mm 4 m/s 748 mmHg 62%
23:00 -7°C° 0 mm 3 m/s 749 mmHg 62%

6 Março, Sábado

Tempo Temperatura Precipitação Vento Pressão Humidade
00:00 -7°C° 0 mm 3 m/s 749 mmHg 64%
01:00 -8°C° 0 mm 3 m/s 749 mmHg 66%
02:00 -7°C° 0 mm 2 m/s 750 mmHg 69%
03:00 -7°C° 0 mm 2 m/s 750 mmHg 71%
04:00 -7°C° 0 mm 2 m/s 750 mmHg 74%
05:00 -7°C° 0 mm 2 m/s 750 mmHg 77%
06:00 -8°C° 0 mm 3 m/s 751 mmHg 76%
07:00 -8°C° 0 mm 3 m/s 751 mmHg 75%
08:00 -8°C° 0 mm 3 m/s 751 mmHg 74%
09:00 -7°C° 0 mm 3 m/s 752 mmHg 68%
10:00 -7°C° 0 mm 4 m/s 752 mmHg 62%
11:00 -5°C° 0 mm 4 m/s 752 mmHg 55%
12:00 -5°C° 0 mm 4 m/s 751 mmHg 52%
13:00 -4°C° 0 mm 4 m/s 751 mmHg 48%
14:00 -3°C° 0 mm 4 m/s 751 mmHg 45%
15:00 -3°C° 0 mm 4 m/s 750 mmHg 45%
16:00 -5°C° 0 mm 5 m/s 749 mmHg 45%
17:00 -5°C° 0 mm 5 m/s 749 mmHg 45%
18:00 -5°C° 0 mm 5 m/s 748 mmHg 49%
19:00 -5°C° 0 mm 6 m/s 747 mmHg 53%
20:00 -6°C° 0 mm 7 m/s 747 mmHg 57%
21:00 -6°C° 0 mm 7 m/s 746 mmHg 59%
22:00 -4°C° 0 mm 7 m/s 745 mmHg 60%
23:00 -5°C° 0 mm 8 m/s 744 mmHg 61%

7 Março, Domingo

Tempo Temperatura Precipitação Vento Pressão Humidade
00:00 -5°C° 0 mm 8 m/s 743 mmHg 65%
01:00 -5°C° 0 mm 8 m/s 742 mmHg 70%
02:00 -5°C° 0 mm 9 m/s 741 mmHg 74%
03:00 -5°C° 0.1 mm 9 m/s 739 mmHg 78%
04:00 -5°C° 0.1 mm 9 m/s 738 mmHg 82%
05:00 -4°C° 0.1 mm 9 m/s 737 mmHg 86%
06:00 -4°C° 0.1 mm 9 m/s 737 mmHg 87%
07:00 -4°C° 0.1 mm 9 m/s 736 mmHg 88%
08:00 -4°C° 0.1 mm 9 m/s 736 mmHg 89%
09:00 -4°C° 0.3 mm 9 m/s 736 mmHg 77%
10:00 -4°C° 0.3 mm 8 m/s 737 mmHg 66%
11:00 -3°C° 0.3 mm 7 m/s 737 mmHg 55%
12:00 -2°C° 0 mm 8 m/s 737 mmHg 51%
13:00 -2°C° 0 mm 8 m/s 737 mmHg 47%
14:00 -2°C° 0 mm 8 m/s 737 mmHg 44%
15:00 -2°C° 0 mm 8 m/s 736 mmHg 45%
16:00 -3°C° 0 mm 7 m/s 736 mmHg 47%
17:00 -3°C° 0 mm 7 m/s 736 mmHg 49%
18:00 -5°C° 0 mm 6 m/s 737 mmHg 52%
19:00 -6°C° 0 mm 6 m/s 737 mmHg 54%
20:00 -8°C° 0 mm 6 m/s 737 mmHg 57%
21:00 -8°C° 0 mm 6 m/s 738 mmHg 62%
22:00 -9°C° 0 mm 6 m/s 738 mmHg 67%
23:00 -9°C° 0 mm 6 m/s 739 mmHg 73%

8 Março, Segunda-feira

Tempo Temperatura Precipitação Vento Pressão Humidade
00:00 -8°C° 0.1 mm 5 m/s 739 mmHg 73%
01:00 -8°C° 0.1 mm 5 m/s 739 mmHg 74%
02:00 -8°C° 0.1 mm 5 m/s 740 mmHg 75%
03:00 -10°C° 0 mm 5 m/s 740 mmHg 73%
04:00 -10°C° 0 mm 5 m/s 740 mmHg 71%
05:00 -11°C° 0 mm 5 m/s 741 mmHg 69%
06:00 -11°C° 0 mm 5 m/s 741 mmHg 69%
07:00 -11°C° 0 mm 6 m/s 742 mmHg 69%
08:00 -12°C° 0 mm 6 m/s 743 mmHg 70%
09:00 -12°C° 0 mm 6 m/s 744 mmHg 67%
10:00 -11°C° 0 mm 6 m/s 745 mmHg 64%
11:00 -11°C° 0 mm 5 m/s 746 mmHg 61%
12:00 -11°C° 0 mm 6 m/s 746 mmHg 56%
13:00 -10°C° 0 mm 6 m/s 747 mmHg 52%
14:00 -10°C° 0 mm 6 m/s 747 mmHg 47%
15:00 -10°C° 0 mm 6 m/s 748 mmHg 48%
16:00 -10°C° 0 mm 5 m/s 748 mmHg 48%
17:00 -10°C° 0 mm 5 m/s 749 mmHg 49%
18:00 -11°C° 0 mm 5 m/s 749 mmHg 53%
19:00 -10°C° 0 mm 4 m/s 750 mmHg 58%
20:00 -10°C° 0 mm 3 m/s 750 mmHg 62%
21:00 -10°C° 0 mm 3 m/s 751 mmHg 65%
22:00 -9°C° 0 mm 2 m/s 751 mmHg 67%
23:00 -9°C° 0 mm 2 m/s 752 mmHg 70%
Mostrar mais

Necessitamos do seu Consentimento

A Meteoprog e os seus Fornecedores de Serviços podem armazenar e aceder a dados pessoais como cookies, identificadores do dispositivo ou outras tecnologias semelhantes existentes no seu dispositivo e processar estes dados para personalizar conteúdos e anúncios, assim como funcionalidades nas redes sociais e análise de tráfego.

  • Armazenar e/ou aceder a informações no seu dispositivo

    Os cookies, identificadores do dispositivo ou outras informações podem ser armazenados ou acedidos no seu dispositivo, para os fins acima indicados.

  • Anúncios e conteúdos personalizados, medição de anúncios e conteúdos, dados sobre o público-alvo e desenvolvimento de produtos

    Os anúncios e os conteúdos podem ser personalizados com base num perfil. Podem ser adicionados dados adicionais para uma maior personalização dos anúncios e dos conteúdos. A eficácia dos anúncios e dos conteúdos pode ser medida. Podem ser obtidas informações sobre o público que visualizou os anúncios e os conteúdos. Estes dados podem ser usados para desenvolver ou melhorar sistemas, softwares ou a experiência do utilizador.

Ao clicar em "Eu concordo”, permitirá o uso de cookies, identificadores do dispositivo e web beacons mencionados ou outras tecnologias semelhantes. As configurações do navegador do seu dispositivo podem ser alteradas.

Para certos fins, podem ser invocados interesses legítimos ao invés de consentimento. Pode ler mais informação sobre este assunto na nossa Política de Privacidade e Cookies.